Regional Weather Roundup
Issued by NWS

Home | Current Version | Previous Version | Text Only | Print | Product List | Glossary Off
Versions: 1 2 3 4 5 6 7 8 9 10 11 12 13 14 15 16 17 18 19 20 21 22 23 24 25 26 27 28 29 30 31 32 33 34 35 36 37 38 39 40 41 42 43 44 45 46 47 48 49 50

972
ASUS44 KJAN 270410
RWRMS

MISSISSIPPI HOURLY WEATHER ROUNDUP
NATIONAL WEATHER SERVICE JACKSON MS
1000 PM CST THU FEB 26 2015

NOTE: "FAIR: INDICATES FEW OR NO CLOUDS BELOW 12,000 FEET WITH NO
SIGNIFICANT WEATHER AND/OR OBSTRUCTIONS TO VISIBILITY.

MSZ001>002-007>008-010>013-018>021-025>028-034>036-270500-
NORTHWEST MISSISSIPPI

CITY           SKY/WX    TMP DP  RH WIND       PRES   REMARKS
CLARKSDALE     MOCLDY    30  23  74 N13G18    30.41R WCI  20
CLEVELAND      CLOUDY    32  27  81 N13G18    30.40R WCI  22
GREENWOOD        N/A    N/A N/A N/A MISG      30.37R
GREENVILLE     CLOUDY    33  25  72 N14       30.39R WCI  23
OLIVE BRANCH   CLOUDY    27  21  80 NE15G23   30.39R WCI  15
OXFORD         MOCLDY    28  19  69 N12G21    30.37R WCI  18
TUNICA         CLEAR     30  21  69 N16       30.42R WCI  19
$$

MSZ003>006-009-014>017-022>024-029>033-037>039-270500-
NORTHEAST MISSISSIPPI

CITY           SKY/WX    TMP DP  RH WIND       PRES   REMARKS
COLUMBUS AFB   MOCLDY    34  30  86 NW9       30.29R WCI  26
CORINTH        CLOUDY    30  23  74 N13G23    30.34S WCI  20
GOLDN TRIANGLE MOCLDY    34  28  80 NW10      30.29R WCI  26
STARKVILLE     CLOUDY    32  32 100 NW5       30.31S FOG     WCI  27
TUPELO         CLOUDY    31  24  75 NE21G26   30.33R WCI  18
$$

MSZ040-058-270500-
CENTRAL MISSISSIPPI

CITY           SKY/WX    TMP DP  RH WIND       PRES   REMARKS
JACKSON INTL   CLOUDY    35  30  82 N9G20     30.32S WCI  28
JACKSON HAWKNS CLOUDY    34  29  82 N10G17    30.33R WCI  26
MERIDIAN KEY   CLOUDY    34  29  82 N10       30.30R WCI  26
MERIDIAN NAS   CLEAR     32  28  85 NW8       30.30R WCI  25
VICKSBURG      CLOUDY    35  28  75 N9        30.39R WCI  28
$$

MSZ059>079-270500-
SOUTH MISSISSIPPI

CITY           SKY/WX    TMP DP  RH WIND       PRES   REMARKS
BROOKHAVEN     CLOUDY    34  32  93 N8G16     30.31S WCI  27
HATTIESBURG    PTCLDY    36  30  79 N10G22    30.30R WCI  28
MCCOMB         CLOUDY    36  29  75 N12       30.29R WCI  28
NATCHEZ        CLOUDY    36  28  75 N12       30.34S WCI  27
PINE BELT      CLEAR     34  27  75 N12       30.29R WCI  25
$$

MSZ080>082-270500-
COASTAL MISSISSIPPI

CITY           SKY/WX    TMP DP  RH WIND       PRES   REMARKS
BILOXI         NOT AVBL
PASCAGOULA     CLOUDY    42  33  70 N7        30.23R
GULFPORT       CLOUDY    43  32  65 N10       30.24R
$$



USA.gov is the U.S. government's official web portal to all federal, state and local government web resources and services.